Location: ??????
(55.7522°N, 37.6156°E)
Time: 18:26:34
(UTC+00:00)

CZ-4C R/B - Pass Details

Date: 14 June 2025
Orbit: 425 x 535 km, 98.0° (Epoch: 12 July)

Event Time Altitude Azimuth Distance (km) Brightness Sun altitude
Rises 19:35:26 0° 23° (NNE) 2,418 7.3 -7.3°
Reaches altitude 10° 19:37:41 10° 37° (NE) 1,537 6.0 -7.4°
Maximum altitude 19:40:30 26° 96° (E) 881 4.1 -7.6°
Enters shadow 19:43:11 11° 155° (SSE) 1,483 4.8 -7.7°
